| time (UTC) | temp F | wind direction | speed MPH | gust MPH | rain 1hr in | rain 24hr in | rain mn in | humidity % | barometer mb |
| 20260506032037 | 47 | 299 | 3.0 | 11.0 | 0.00 | 0.00 | 0.00 | 71 | 1004.7 |
| 20260506031553 | 48 | 158 | 3.0 | 7.0 | 0.00 | 0.00 | 0.00 | 70 | 1004.5 |
| 20260506031035 | 48 | 184 | 2.0 | 14.0 | 0.00 | 0.00 | 0.00 | 70 | 1004.5 |
| 20260506030535 | 49 | 288 | 3.0 | 14.0 | 0.00 | 0.00 | 0.00 | 70 | 1004.4 |
| 20260506030038 | 49 | 211 | 4.0 | 14.0 | 0.00 | 0.00 | 0.00 | 69 | 1004.3 |
| 20260506025534 | 49 | 263 | 3.0 | 10.0 | 0.00 | 0.00 | 0.00 | 69 | 1004.2 |
| 20260506025033 | 49 | 182 | 3.0 | 8.0 | 0.00 | 0.00 | 0.00 | 70 | 1004.2 |
| 20260506024536 | 49 | 143 | 2.0 | 9.0 | 0.00 | 0.00 | 0.00 | 70 | 1004.1 |
| 20260506024032 | 50 | 165 | 3.0 | 10.0 | 0.00 | 0.00 | 0.00 | 70 | 1004.0 |
| 20260506023532 | 51 | 168 | 3.0 | 10.0 | 0.00 | 0.00 | 0.00 | 68 | 1003.8 |
| 20260506023033 | 51 | 218 | 2.0 | 9.0 | 0.00 | 0.00 | 0.00 | 67 | 1003.6 |
| 20260506022531 | 51 | 165 | 3.0 | 12.0 | 0.00 | 0.00 | 0.00 | 67 | 1003.5 |
| 20260506022031 | 51 | 196 | 2.0 | 12.0 | 0.00 | 0.00 | 0.00 | 68 | 1003.5 |
| 20260506021530 | 51 | 256 | 3.0 | 9.0 | 0.00 | 0.00 | 0.00 | 67 | 1003.5 |
| 20260506021028 | 52 | 202 | 3.0 | 7.0 | 0.00 | 0.00 | 0.00 | 65 | 1003.4 |
| 20260506020533 | 52 | 250 | 3.0 | 7.0 | 0.00 | 0.00 | 0.00 | 64 | 1003.2 |
| 20260506020027 | 52 | 182 | 2.0 | 10.0 | 0.00 | 0.00 | 0.00 | 64 | 1003.2 |
| 20260506015526 | 52 | 227 | 3.0 | 10.0 | 0.00 | 0.00 | 0.00 | 63 | 1003.2 |
| 20260506015026 | 52 | 199 | 2.0 | 11.0 | 0.00 | 0.00 | 0.00 | 65 | 1003.1 |
| 20260506014527 | 52 | 218 | 1.0 | 11.0 | 0.00 | 0.00 | 0.00 | 68 | 1003.1 |
| 20260506014024 | 52 | 261 | 4.0 | 10.0 | 0.00 | 0.00 | 0.00 | 67 | 1003.0 |
| 20260506013524 | 52 | 246 | 4.0 | 10.0 | 0.00 | 0.00 | 0.00 | 67 | 1003.0 |
| 20260506013026 | 53 | 284 | 4.0 | 9.0 | 0.00 | 0.00 | 0.00 | 68 | 1003.0 |
| 20260506012523 | 53 | 314 | 2.0 | 9.0 | 0.00 | 0.00 | 0.00 | 69 | 1002.8 |
| 20260506012022 | 52 | 99 | 3.0 | 9.0 | 0.00 | 0.00 | 0.00 | 69 | 1002.8 |
| 20260506011526 | 52 | 194 | 3.0 | 10.0 | 0.00 | 0.00 | 0.00 | 69 | 1002.8 |
| 20260506011022 | 52 | 246 | 2.0 | 10.0 | 0.00 | 0.00 | 0.00 | 69 | 1002.8 |
| 20260506010522 | 52 | 214 | 2.0 | 9.0 | 0.00 | 0.00 | 0.00 | 69 | 1002.8 |
| 20260506010023 | 52 | 196 | 3.0 | 8.0 | 0.00 | 0.00 | 0.00 | 70 | 1002.8 |
| 20260506005521 | 52 | 205 | 3.0 | 9.0 | 0.00 | 0.00 | 0.00 | 69 | 1002.8 |
| 20260506005025 | 52 | 290 | 3.0 | 9.0 | 0.00 | 0.00 | 0.00 | 68 | 1002.7 |
| 20260506004520 | 52 | 189 | 2.0 | 9.0 | 0.00 | 0.00 | 0.00 | 69 | 1002.8 |
| 20260506004020 | 53 | 250 | 4.0 | 9.0 | 0.00 | 0.00 | 0.00 | 69 | 1002.7 |
| 20260506003520 | 53 | 162 | 3.0 | 10.0 | 0.00 | 0.00 | 0.00 | 69 | 1002.8 |
| 20260506003022 | 53 | 225 | 3.0 | 7.0 | 0.00 | 0.00 | 0.00 | 69 | 1002.5 |
| 20260506002520 | 52 | 228 | 3.0 | 8.0 | 0.00 | 0.00 | 0.00 | 71 | 1002.6 |
| 20260506002021 | 52 | 227 | 2.0 | 11.0 | 0.00 | 0.00 | 0.00 | 71 | 1002.6 |
| 20260506001519 | 52 | 217 | 2.0 | 11.0 | 0.00 | 0.00 | 0.00 | 71 | 1002.6 |
| 20260506001019 | 52 | 155 | 3.0 | 13.0 | 0.00 | 0.00 | 0.00 | 70 | 1002.5 |
| 20260506000519 | 52 | 199 | 2.0 | 13.0 | 0.00 | 0.00 | 0.00 | 71 | 1002.4 |
| 20260506000018 | 53 | 252 | 2.0 | 16.0 | 0.00 | 0.00 | 0.00 | 70 | 1002.4 |
| 20260505235517 | 53 | 163 | 3.0 | 16.0 | 0.00 | 0.00 | 0.00 | 70 | 1002.4 |
| 20260505235019 | 53 | 231 | 3.0 | 11.0 | 0.00 | 0.00 | 0.00 | 70 | 1002.4 |
| 20260505234533 | 52 | 217 | 2.0 | 11.0 | 0.00 | 0.00 | 0.00 | 71 | 1002.3 |
| 20260505234015 | 52 | 171 | 3.0 | 10.0 | 0.00 | 0.00 | 0.00 | 70 | 1002.2 |
| 20260505233516 | 52 | 148 | 3.0 | 11.0 | 0.00 | 0.00 | 0.00 | 70 | 1002.2 |
| 20260505233018 | 53 | 184 | 3.0 | 11.0 | 0.00 | 0.00 | 0.00 | 70 | 1002.1 |
| 20260505232515 | 53 | 217 | 4.0 | 11.0 | 0.00 | 0.00 | 0.00 | 69 | 1002.2 |
| 20260505232015 | 53 | 218 | 3.0 | 12.0 | 0.00 | 0.00 | 0.00 | 69 | 1002.2 |
| 20260505231515 | 53 | 203 | 4.0 | 10.0 | 0.00 | 0.00 | 0.00 | 68 | 1002.2 |
| 20260505231013 | 53 | 206 | 2.0 | 9.0 | 0.00 | 0.00 | 0.00 | 69 | 1002.1 |
| 20260505230518 | 53 | 215 | 2.0 | 9.0 | 0.00 | 0.00 | 0.00 | 70 | 1002.1 |
| 20260505230013 | 53 | 156 | 1.0 | 8.0 | 0.00 | 0.00 | 0.00 | 69 | 1002.0 |
| 20260505225508 | 53 | 215 | 3.0 | 8.0 | 0.00 | 0.00 | 0.00 | 69 | 1002.1 |
| 20260505225007 | 53 | 220 | 2.0 | 8.0 | 0.00 | 0.00 | 0.00 | 70 | 1002.0 |
| 20260505224506 | 53 | 262 | 2.0 | 10.0 | 0.00 | 0.00 | 0.00 | 71 | 1002.0 |
| 20260505224005 | 52 | 173 | 3.0 | 10.0 | 0.00 | 0.00 | 0.00 | 70 | 1002.0 |
| 20260505223503 | 52 | 247 | 2.0 | 9.0 | 0.00 | 0.00 | 0.00 | 71 | 1001.9 |
| 20260505223003 | 52 | 175 | 2.0 | 11.0 | 0.00 | 0.00 | 0.00 | 70 | 1001.9 |
| 20260505222600 | 52 | 279 | 4.0 | 11.0 | 0.00 | 0.00 | 0.00 | 71 | 1001.9 |
| 20260505222100 | 51 | 239 | 3.0 | 9.0 | 0.00 | 0.00 | 0.00 | 72 | 1001.8 |
| 20260505221613 | 51 | 223 | 2.0 | 9.0 | 0.00 | 0.00 | 0.00 | 73 | 1001.8 |
| 20260505221056 | 51 | 288 | 2.0 | 5.0 | 0.00 | 0.00 | 0.00 | 74 | 1001.7 |
| 20260505220558 | 51 | 209 | 1.0 | 5.0 | 0.00 | 0.00 | 0.00 | 75 | 1001.7 |
| 20260505220126 | 50 | 180 | 1.0 | 7.0 | 0.00 | 0.00 | 0.00 | 75 | 1001.7 |
| 20260505215552 | 50 | 168 | 2.0 | 7.0 | 0.00 | 0.00 | 0.00 | 75 | 1001.8 |
| 20260505215051 | 50 | 201 | 1.0 | 6.0 | 0.00 | 0.00 | 0.00 | 77 | 1001.7 |
| 20260505214608 | 49 | 260 | 2.0 | 7.0 | 0.00 | 0.00 | 0.00 | 79 | 1001.7 |
| 20260505214048 | 49 | 212 | 3.0 | 7.0 | 0.00 | 0.00 | 0.00 | 79 | 1001.7 |
| 20260505213549 | 49 | 243 | 2.0 | 7.0 | 0.00 | 0.00 | 0.00 | 79 | 1001.6 |
| 20260505213048 | 48 | 179 | 2.0 | 7.0 | 0.00 | 0.00 | 0.00 | 79 | 1001.6 |
| 20260505212545 | 48 | 240 | 1.0 | 6.0 | 0.00 | 0.00 | 0.00 | 80 | 1001.6 |
| 20260505212044 | 48 | 217 | 3.0 | 6.0 | 0.00 | 0.00 | 0.00 | 80 | 1001.5 |
| 20260505211543 | 48 | 251 | 2.0 | 7.0 | 0.00 | 0.00 | 0.00 | 80 | 1001.4 |
| 20260505211042 | 48 | 182 | 2.0 | 5.0 | 0.00 | 0.00 | 0.00 | 81 | 1001.4 |
| 20260505210543 | 47 | 222 | 2.0 | 5.0 | 0.00 | 0.00 | 0.00 | 82 | 1001.4 |
| 20260505210038 | 47 | 176 | 1.0 | 4.0 | 0.00 | 0.00 | 0.00 | 85 | 1001.3 |
| 20260505205538 | 47 | 167 | 1.0 | 3.0 | 0.00 | 0.00 | 0.00 | 85 | 1001.3 |
| 20260505205036 | 46 | 199 | 1.0 | 3.0 | 0.00 | 0.00 | 0.00 | 85 | 1001.4 |
| 20260505204535 | 46 | 129 | 1.0 | 3.0 | 0.00 | 0.00 | 0.00 | 86 | 1001.3 |
| 20260505204034 | 46 | 167 | 1.0 | 4.0 | 0.00 | 0.00 | 0.00 | 86 | 1001.3 |
| 20260505203533 | 46 | 134 | 1.0 | 4.0 | 0.00 | 0.00 | 0.00 | 86 | 1001.3 |
| 20260505203033 | 46 | 143 | 1.0 | 3.0 | 0.00 | 0.00 | 0.00 | 86 | 1001.3 |
| 20260505202534 | 46 | 179 | 1.0 | 4.0 | 0.00 | 0.00 | 0.00 | 86 | 1001.2 |
| 20260505202032 | 45 | 196 | 1.0 | 4.0 | 0.00 | 0.00 | 0.00 | 86 | 1001.1 |
| 20260505201532 | 45 | 97 | 1.0 | 3.0 | 0.00 | 0.00 | 0.00 | 86 | 1001.0 |
| 20260505201032 | 45 | 154 | 0.0 | 3.0 | 0.00 | 0.00 | 0.00 | 86 | 1000.9 |
| 20260505200532 | 45 | 191 | 1.0 | 3.0 | 0.00 | 0.00 | 0.00 | 86 | 1000.9 |
| 20260505200034 | 45 | 211 | 2.0 | 3.0 | 0.00 | 0.00 | 0.00 | 86 | 1000.9 |
| 20260505195531 | 45 | 185 | 0.0 | 5.0 | 0.00 | 0.00 | 0.00 | 87 | 1000.8 |
| 20260505195030 | 45 | 190 | 2.0 | 4.0 | 0.00 | 0.00 | 0.00 | 86 | 1000.8 |
| 20260505194529 | 45 | 175 | 1.0 | 3.0 | 0.00 | 0.00 | 0.00 | 86 | 1000.6 |
| 20260505194029 | 45 | 128 | 1.0 | 3.0 | 0.00 | 0.00 | 0.00 | 86 | 1000.5 |
| 20260505193529 | 45 | 186 | 0.0 | 3.0 | 0.00 | 0.00 | 0.00 | 86 | 1000.6 |
| 20260505193028 | 44 | 173 | 1.0 | 3.0 | 0.00 | 0.00 | 0.00 | 86 | 1000.5 |
| 20260505192628 | 44 | 173 | 1.0 | 4.0 | 0.00 | 0.00 | 0.00 | 87 | 1000.5 |
| 20260505192028 | 44 | 114 | 1.0 | 3.0 | 0.00 | 0.00 | 0.00 | 87 | 1000.5 |
| 20260505191528 | 44 | 147 | 1.0 | 3.0 | 0.00 | 0.00 | 0.00 | 87 | 1000.4 |
| 20260505191126 | 44 | 148 | 1.0 | 3.0 | 0.00 | 0.00 | 0.00 | 87 | 1000.5 |
| 20260505190530 | 43 | 171 | 0.0 | 3.0 | 0.00 | 0.00 | 0.00 | 87 | 1000.3 |
| 20260505190025 | 43 | 172 | 0.0 | 2.0 | 0.00 | 0.00 | 0.00 | 87 | 1000.4 |
| 20260505185526 | 43 | 221 | 0.0 | 3.0 | 0.00 | 0.00 | 0.00 | 87 | 1000.4 |
| 20260505185025 | 43 | 221 | 0.0 | 3.0 | 0.00 | 0.00 | 0.00 | 87 | 1000.4 |
| 20260505184528 | 43 | 174 | 0.0 | 2.0 | 0.00 | 0.00 | 0.00 | 87 | 1000.3 |
| 20260505184026 | 43 | 174 | 1.0 | 3.0 | 0.00 | 0.00 | 0.00 | 88 | 1000.5 |
| 20260505183526 | 43 | 173 | 1.0 | 3.0 | 0.00 | 0.00 | 0.00 | 87 | 1000.4 |
| 20260505183040 | 43 | 193 | 0.0 | 0.0 | 0.00 | 0.00 | 0.00 | 87 | 1000.4 |
| 20260505182526 | 43 | 193 | 0.0 | 2.0 | 0.00 | 0.00 | 0.00 | 86 | 1000.3 |
| 20260505182025 | 43 | 193 | 0.0 | 2.0 | 0.00 | 0.00 | 0.00 | 86 | 1000.4 |
| 20260505181526 | 44 | 196 | 0.0 | 3.0 | 0.00 | 0.00 | 0.00 | 85 | 1000.5 |
| 20260505181025 | 44 | 197 | 0.0 | 3.0 | 0.00 | 0.00 | 0.00 | 84 | 1000.6 |
| 20260505180524 | 44 | 178 | 0.0 | 3.0 | 0.00 | 0.00 | 0.00 | 82 | 1000.5 |
| 20260505180024 | 45 | 183 | 1.0 | 3.0 | 0.00 | 0.00 | 0.00 | 80 | 1000.4 |
| 20260505175524 | 45 | 175 | 1.0 | 3.0 | 0.00 | 0.00 | 0.00 | 79 | 1000.5 |
| 20260505175023 | 45 | 223 | 0.0 | 3.0 | 0.00 | 0.00 | 0.00 | 79 | 1000.5 |
| 20260505174523 | 45 | 214 | 1.0 | 3.0 | 0.00 | 0.00 | 0.00 | 79 | 1000.4 |
| 20260505174023 | 46 | 137 | 2.0 | 5.0 | 0.00 | 0.00 | 0.00 | 78 | 1000.3 |
| 20260505173526 | 46 | 154 | 1.0 | 5.0 | 0.00 | 0.00 | 0.00 | 79 | 1000.2 |
| 20260505173023 | 45 | 138 | 0.0 | 5.0 | 0.00 | 0.00 | 0.00 | 79 | 1000.1 |
| 20260505172524 | 45 | 215 | 2.0 | 5.0 | 0.00 | 0.00 | 0.00 | 80 | 1000.2 |
| 20260505172022 | 44 | 230 | 2.0 | 5.0 | 0.00 | 0.00 | 0.00 | 81 | 1000.1 |
| 20260505171522 | 43 | 170 | 0.0 | 4.0 | 0.00 | 0.00 | 0.00 | 82 | 1000.0 |
| 20260505171022 | 42 | 146 | 2.0 | 4.0 | 0.00 | 0.00 | 0.00 | 84 | 1000.0 |
| 20260505170519 | 41 | 115 | 0.0 | 2.0 | 0.00 | 0.00 | 0.00 | 84 | 999.8 |
| 20260505170019 | 41 | 115 | 1.0 | 3.0 | 0.00 | 0.00 | 0.00 | 85 | 999.9 |
| 20260505165518 | 40 | 115 | 1.0 | 3.0 | 0.00 | 0.00 | 0.00 | 86 | 999.9 |
| 20260505165017 | 40 | 120 | 1.0 | 3.0 | 0.00 | 0.00 | 0.00 | 86 | 1000.1 |
| 20260505164517 | 40 | 116 | 1.0 | 3.0 | 0.00 | 0.00 | 0.00 | 86 | 999.9 |
| 20260505164015 | 39 | 190 | 0.0 | 0.0 | 0.00 | 0.00 | 0.00 | 86 | 999.8 |
| 20260505163515 | 39 | 189 | 0.0 | 0.0 | 0.00 | 0.00 | 0.00 | 86 | 999.7 |
| 20260505163015 | 39 | 189 | 0.0 | 0.0 | 0.00 | 0.00 | 0.00 | 86 | 999.7 |
| 20260505162513 | 39 | 190 | 0.0 | 0.0 | 0.00 | 0.00 | 0.00 | 87 | 999.7 |
| 20260505162013 | 39 | 190 | 0.0 | 0.0 | 0.00 | 0.00 | 0.00 | 87 | 999.7 |
| 20260505161512 | 39 | 190 | 0.0 | 0.0 | 0.00 | 0.00 | 0.00 | 86 | 999.8 |
| 20260505161012 | 39 | 189 | 0.0 | 2.0 | 0.00 | 0.00 | 0.00 | 87 | 999.8 |
| 20260505160512 | 39 | 189 | 0.0 | 2.0 | 0.00 | 0.00 | 0.00 | 87 | 999.8 |
| 20260505153010 | 37 | 168 | 0.0 | 2.0 | 0.00 | 0.00 | 0.00 | 93 | 999.4 |
| 20260505152509 | 37 | 50 | 0.0 | 0.0 | 0.00 | 0.00 | 0.00 | 93 | 999.5 |
| 20260505152010 | 37 | 50 | 0.0 | 0.0 | 0.00 | 0.00 | 0.00 | 92 | 999.5 |
| 20260505151510 | 36 | 50 | 0.0 | 0.0 | 0.00 | 0.00 | 0.00 | 92 | 999.4 |
| 20260505151007 | 36 | 50 | 0.0 | 0.0 | 0.00 | 0.00 | 0.00 | 92 | 999.5 |
| 20260505150507 | 36 | 50 | 0.0 | 0.0 | 0.00 | 0.00 | 0.00 | 92 | 999.5 |
| 20260505140600 | 36 | 50 | 0.0 | 0.0 | 0.00 | 0.00 | 0.00 | 92 | 999.3 |
| 20260505140121 | 36 | 50 | 0.0 | 0.0 | 0.00 | 0.00 | 0.00 | 92 | 999.3 |
| 20260505124558 | 36 | 9 | 0.0 | 0.0 | 0.00 | 0.00 | 0.00 | 89 | 999.0 |
| 20260505124049 | 36 | 9 | 0.0 | 0.0 | 0.00 | 0.00 | 0.00 | 89 | 998.9 |
| 20260505123548 | 36 | 9 | 0.0 | 0.0 | 0.00 | 0.00 | 0.00 | 89 | 998.8 |
| 20260505123048 | 36 | 9 | 0.0 | 0.0 | 0.00 | 0.00 | 0.00 | 87 | 998.8 |
| 20260505122545 | 37 | 9 | 0.0 | 0.0 | 0.00 | 0.00 | 0.00 | 88 | 999.0 |
| 20260505122045 | 37 | 9 | 0.0 | 0.0 | 0.00 | 0.00 | 0.00 | 88 | 998.9 |
| 20260505121544 | 38 | 9 | 0.0 | 0.0 | 0.00 | 0.00 | 0.00 | 88 | 999.0 |
| 20260505121043 | 38 | 9 | 0.0 | 0.0 | 0.00 | 0.00 | 0.00 | 88 | 999.0 |
| 20260505120542 | 38 | 9 | 0.0 | 0.0 | 0.00 | 0.00 | 0.00 | 87 | 999.0 |
| 20260505120048 | 39 | 9 | 0.0 | 0.0 | 0.00 | 0.00 | 0.00 | 87 | 999.0 |
| 20260505115538 | 39 | 9 | 0.0 | 0.0 | 0.00 | 0.00 | 0.00 | 87 | 998.8 |
| 20260505115039 | 39 | 9 | 0.0 | 0.0 | 0.00 | 0.00 | 0.00 | 87 | 998.8 |
| 20260505114537 | 39 | 9 | 0.0 | 0.0 | 0.00 | 0.00 | 0.00 | 87 | 999.0 |
| 20260505114037 | 39 | 9 | 0.0 | 0.0 | 0.00 | 0.00 | 0.00 | 86 | 998.9 |
| 20260505113635 | 40 | 9 | 0.0 | 0.0 | 0.00 | 0.00 | 0.00 | 86 | 999.1 |
| 20260505113035 | 40 | 9 | 0.0 | 0.0 | 0.00 | 0.00 | 0.00 | 85 | 999.2 |
| 20260505112536 | 40 | 9 | 0.0 | 0.0 | 0.00 | 0.00 | 0.00 | 84 | 999.2 |
| 20260505112031 | 41 | 9 | 0.0 | 0.0 | 0.00 | 0.00 | 0.00 | 84 | 999.2 |
| 20260505111531 | 41 | 10 | 0.0 | 0.0 | 0.00 | 0.00 | 0.00 | 84 | 999.1 |
| 20260505111029 | 41 | 10 | 0.0 | 0.0 | 0.00 | 0.00 | 0.00 | 84 | 999.1 |
| 20260505110532 | 41 | 10 | 0.0 | 0.0 | 0.00 | 0.00 | 0.00 | 84 | 999.1 |
| 20260505102027 | 43 | 10 | 0.0 | 0.0 | 0.00 | 0.00 | 0.00 | 82 | 999.5 |
| 20260505101526 | 43 | 9 | 0.0 | 0.0 | 0.00 | 0.00 | 0.00 | 82 | 999.5 |
| 20260505101022 | 43 | 9 | 0.0 | 0.0 | 0.00 | 0.00 | 0.00 | 82 | 999.5 |
| 20260505100522 | 43 | 9 | 0.0 | 0.0 | 0.00 | 0.00 | 0.00 | 82 | 999.5 |
| 20260505100024 | 43 | 9 | 0.0 | 2.0 | 0.00 | 0.00 | 0.00 | 82 | 999.6 |
| 20260505095522 | 43 | 9 | 0.0 | 2.0 | 0.00 | 0.00 | 0.00 | 82 | 999.6 |
| 20260505095021 | 43 | 9 | 1.0 | 2.0 | 0.00 | 0.00 | 0.00 | 81 | 999.6 |
| 20260505094526 | 43 | 9 | 1.0 | 2.0 | 0.00 | 0.00 | 0.00 | 81 | 999.7 |
| 20260505094018 | 43 | 46 | 0.0 | 0.0 | 0.00 | 0.00 | 0.00 | 81 | 999.8 |
| 20260505093519 | 43 | 46 | 0.0 | 0.0 | 0.00 | 0.00 | 0.00 | 81 | 999.9 |
| 20260505093017 | 43 | 46 | 0.0 | 0.0 | 0.00 | 0.00 | 0.00 | 81 | 1000.0 |
| 20260505092517 | 43 | 46 | 0.0 | 0.0 | 0.00 | 0.00 | 0.00 | 81 | 1000.0 |
| 20260505092018 | 43 | 46 | 0.0 | 0.0 | 0.00 | 0.00 | 0.00 | 81 | 1000.1 |
| 20260505091516 | 43 | 46 | 0.0 | 0.0 | 0.00 | 0.00 | 0.00 | 81 | 1000.2 |
| 20260505091014 | 43 | 46 | 0.0 | 0.0 | 0.00 | 0.00 | 0.00 | 82 | 1000.4 |
| 20260505090514 | 43 | 46 | 0.0 | 0.0 | 0.00 | 0.00 | 0.00 | 82 | 1000.5 |
| 20260505090014 | 43 | 46 | 0.0 | 0.0 | 0.00 | 0.00 | 0.00 | 82 | 1000.5 |
| 20260505085517 | 43 | 46 | 0.0 | 0.0 | 0.00 | 0.00 | 0.00 | 82 | 1000.5 |
| 20260505085016 | 43 | 46 | 0.0 | 0.0 | 0.00 | 0.00 | 0.00 | 82 | 1000.5 |
| 20260505084517 | 43 | 46 | 0.0 | 0.0 | 0.00 | 0.00 | 0.00 | 82 | 1000.7 |
| 20260505084011 | 43 | 46 | 0.0 | 0.0 | 0.00 | 0.00 | 0.00 | 81 | 1000.7 |
| 20260505083510 | 43 | 46 | 0.0 | 0.0 | 0.00 | 0.00 | 0.00 | 81 | 1000.7 |
| 20260505083009 | 44 | 46 | 0.0 | 0.0 | 0.00 | 0.00 | 0.00 | 81 | 1000.8 |
| 20260505082508 | 44 | 46 | 0.0 | 0.0 | 0.00 | 0.00 | 0.00 | 80 | 1000.9 |
| 20260505082007 | 44 | 46 | 0.0 | 0.0 | 0.00 | 0.00 | 0.00 | 79 | 1000.9 |
| 20260505081507 | 45 | 46 | 0.0 | 0.0 | 0.00 | 0.00 | 0.00 | 78 | 1000.9 |
| 20260505081005 | 45 | 46 | 0.0 | 0.0 | 0.00 | 0.00 | 0.00 | 77 | 1001.0 |
| 20260505080503 | 45 | 46 | 0.0 | 0.0 | 0.00 | 0.00 | 0.00 | 76 | 1001.1 |
| 20260505080002 | 46 | 46 | 0.0 | 0.0 | 0.00 | 0.00 | 0.00 | 76 | 1001.1 |
| 20260505075502 | 46 | 46 | 0.0 | 0.0 | 0.00 | 0.00 | 0.00 | 75 | 1001.2 |
| 20260505075003 | 46 | 46 | 0.0 | 0.0 | 0.00 | 0.00 | 0.00 | 75 | 1001.2 |
| 20260505074600 | 47 | 46 | 0.0 | 0.0 | 0.00 | 0.00 | 0.00 | 74 | 1001.3 |
| 20260505074100 | 47 | 46 | 0.0 | 0.0 | 0.00 | 0.00 | 0.00 | 74 | 1001.5 |
| 20260505073600 | 47 | 46 | 0.0 | 0.0 | 0.00 | 0.00 | 0.00 | 73 | 1001.6 |
| 20260505073104 | 47 | 46 | 0.0 | 0.0 | 0.00 | 0.00 | 0.00 | 73 | 1001.5 |
| 20260505072559 | 48 | 46 | 0.0 | 0.0 | 0.00 | 0.00 | 0.00 | 72 | 1001.5 |
| 20260505072059 | 48 | 46 | 0.0 | 0.0 | 0.00 | 0.00 | 0.00 | 72 | 1001.5 |
| 20260505071559 | 48 | 46 | 0.0 | 0.0 | 0.00 | 0.00 | 0.00 | 72 | 1001.5 |
| 20260505071100 | 48 | 46 | 0.0 | 0.0 | 0.00 | 0.00 | 0.00 | 71 | 1001.5 |
| 20260505070558 | 49 | 46 | 0.0 | 0.0 | 0.00 | 0.00 | 0.00 | 71 | 1001.6 |
| 20260505070058 | 49 | 46 | 0.0 | 0.0 | 0.00 | 0.00 | 0.00 | 70 | 1001.6 |
| 20260505065556 | 50 | 46 | 0.0 | 0.0 | 0.00 | 0.00 | 0.00 | 68 | 1001.8 |
| 20260505065057 | 50 | 46 | 0.0 | 0.0 | 0.00 | 0.00 | 0.00 | 68 | 1001.6 |
| 20260505064600 | 50 | 46 | 0.0 | 0.0 | 0.00 | 0.00 | 0.00 | 67 | 1001.8 |
| 20260505064055 | 50 | 46 | 0.0 | 1.0 | 0.00 | 0.00 | 0.00 | 67 | 1001.9 |
| 20260505063555 | 51 | 46 | 0.0 | 2.0 | 0.00 | 0.00 | 0.00 | 67 | 1002.0 |
| 20260505063112 | 51 | 46 | 0.0 | 3.0 | 0.00 | 0.00 | 0.00 | 66 | 1001.9 |
| 20260505062556 | 51 | 46 | 1.0 | 3.0 | 0.00 | 0.00 | 0.00 | 65 | 1001.9 |
| 20260505062053 | 51 | 107 | 0.0 | 4.0 | 0.00 | 0.00 | 0.00 | 65 | 1002.1 |
| 20260505061556 | 51 | 96 | 1.0 | 4.0 | 0.00 | 0.00 | 0.00 | 65 | 1002.1 |
| 20260505061052 | 51 | 96 | 1.0 | 6.0 | 0.00 | 0.00 | 0.00 | 65 | 1002.1 |
| 20260505060552 | 51 | 86 | 1.0 | 8.0 | 0.00 | 0.00 | 0.00 | 64 | 1002.3 |
| 20260505060054 | 52 | 73 | 1.0 | 8.0 | 0.00 | 0.00 | 0.00 | 64 | 1002.3 |
| 20260505055553 | 52 | 54 | 2.0 | 6.0 | 0.00 | 0.00 | 0.00 | 64 | 1002.4 |
| 20260505055053 | 52 | 50 | 2.0 | 5.0 | 0.00 | 0.00 | 0.00 | 64 | 1002.4 |
| 20260505054607 | 52 | 71 | 2.0 | 5.0 | 0.00 | 0.00 | 0.00 | 64 | 1002.4 |
| 20260505054053 | 52 | 10 | 1.0 | 4.0 | 0.00 | 0.00 | 0.00 | 64 | 1002.3 |
| 20260505053550 | 52 | 34 | 2.0 | 5.0 | 0.00 | 0.00 | 0.00 | 64 | 1002.4 |
| 20260505053058 | 52 | 36 | 2.0 | 5.0 | 0.00 | 0.00 | 0.00 | 64 | 1002.4 |
| 20260505052550 | 52 | 13 | 1.0 | 4.0 | 0.00 | 0.00 | 0.00 | 64 | 1002.4 |
| 20260505052048 | 53 | 5 | 1.0 | 6.0 | 0.00 | 0.00 | 0.00 | 64 | 1002.8 |
| 20260505051548 | 53 | 341 | 2.0 | 6.0 | 0.00 | 0.00 | 0.00 | 63 | 1003.1 |
| 20260505051047 | 53 | 36 | 1.0 | 5.0 | 0.00 | 0.00 | 0.00 | 63 | 1002.9 |
| 20260505050548 | 53 | 351 | 2.0 | 5.0 | 0.00 | 0.00 | 0.00 | 62 | 1002.8 |
| 20260505041551 | 53 | 10 | 0.0 | 0.0 | 0.00 | 0.00 | 0.00 | 68 | 1004.1 |
| 20260505041039 | 53 | 10 | 0.0 | 0.0 | 0.00 | 0.00 | 0.00 | 68 | 1004.2 |
| 20260505040539 | 53 | 355 | 0.0 | 0.0 | 0.00 | 0.00 | 0.00 | 68 | 1004.3 |
| 20260505040049 | 53 | 355 | 0.0 | 0.0 | 0.00 | 0.00 | 0.00 | 68 | 1004.4 |
| 20260505035537 | 53 | 355 | 0.0 | 2.0 | 0.00 | 0.00 | 0.00 | 68 | 1004.4 |
| 20260505035036 | 53 | 355 | 0.0 | 2.0 | 0.00 | 0.00 | 0.00 | 68 | 1004.6 |
| 20260505034535 | 53 | 355 | 0.0 | 2.0 | 0.00 | 0.00 | 0.00 | 69 | 1004.6 |
| 20260505034037 | 53 | 313 | 0.0 | 0.0 | 0.00 | 0.00 | 0.00 | 70 | 1004.8 |
| 20260505033534 | 53 | 313 | 0.0 | 0.0 | 0.00 | 0.00 | 0.00 | 70 | 1004.9 |
| 20260505033033 | 53 | 310 | 0.0 | 0.0 | 0.00 | 0.00 | 0.00 | 69 | 1005.2 |
| 20260505032533 | 53 | 310 | 0.0 | 0.0 | 0.00 | 0.00 | 0.00 | 69 | 1005.2 |